Location: Central Falls
(41.8900°N, 71.3929°W)
Time: 06:43:25
(UTC+00:00)

Tiros 1 despin weight - Pass Details

Date: 10 December 2023
Orbit: 581 x 624 km, 48.2° (Epoch: 28 February)

Event Time Altitude Azimuth Distance (km) Brightness Sun altitude
Rises 23:18:17 0° 283° (WNW) 2,808 ? -22.3°
Reaches altitude 10° 23:20:44 10° 292° (WNW) 1,903 ? -22.7°
Enters shadow 23:24:29 35° 352° (N) 955 ? -23.4°
Maximum altitude 23:24:44 35° 359° (N) 949 - -23.4°
Drops below altitude 10° 23:28:44 10° 66° (ENE) 1,896 - -24.2°
Sets 23:31:09 0° 76° (ENE) 2,796 - -24.6°
